Shelbyville, IN

11:39 PM EST on December 17, 2017 (GMT -0500)
Shelbyville Municipal

Weather History for KGEZ - January, 2014

Change the Weather History Date:

Monday, January 27, 2014

  Actual Average Record
Temperature  
Mean Temperature 19 °F 29 °F  
Max Temperature 37 °F 37 °F 62 °F (1999)
Min Temperature 0 °F 21 °F -13 °F (2003)
Degree Days  
Heating Degree Days 46 36  
Month to date heating degree days 1104 972  
Since 1 July heating degree days 3183 3076  
Cooling Degree Days 0 0  
Month to date cooling degree days 0 0  
Year to date cooling degree days 0 0  
Moisture  
Dew Point 1 °F    
Average Humidity 56    
Maximum Humidity 69    
Minimum Humidity 43    
Precipitation  
Precipitation T in 0.06 in 0.39 in (2009)
Month to date precipitation 2.01 2.16  
Year to date precipitation 2.01 2.16  
Sea Level Pressure  
Sea Level Pressure 30.14 in    
Wind  
Wind Speed 17 mph (NW)    
Max Wind Speed 39 mph    
Max Gust Speed 50 mph    
Visibility 9 miles    
Events Snow    
T = Trace of Precipitation, MM = Missing Value Source: NWS Daily Summary

Daily Weather History Graph

Daily Weather History Graph

Search for Another Location

Airport or City:

Trip Planner

Search our weather history database for the weather conditions in past years. The results will help you decide how hot, cold, wet, or windy it might be!

Date:

Astronomy

Jan. 27, 2014 Rise Set
Actual Time 7:55 AM EST 5:57 PM EST
Civil Twilight 7:26 AM EST 6:26 PM EST
Nautical Twilight 6:53 AM EST 6:58 PM EST
Astronomical Twilight 6:22 AM EST 7:30 PM EST
Moon 4:35 AM EST (1/27) 2:42 PM EST (1/27)
Length of Visible Light 10h 59m
Length of Day
10h 02m
Waning Crescent, 15% of the Moon is Illuminated
Jan 27
Waning Crescent
Jan 30
New
Feb 6
First Quarter
Feb 14
Full
Feb 22
Last Quarter

Hourly Weather History & Observations

Time (EST) Temp. Windchill Dew Point Humidity Pressure Visibility Wind Dir Wind Speed Gust Speed Precip Events Conditions
12:09 AM 34.0 °F 20.3 °F 28.0 °F 79% 29.65 in 2.0 mi NW 29.9 mph 40.3 mph 0.00 in Snow Light Snow
12:17 AM 32.0 °F 17.9 °F 28.0 °F 85% 29.67 in 1.8 mi NW 28.8 mph 35.7 mph 0.00 in Snow Light Snow
12:20 AM 32.0 °F 17.9 °F 27.0 °F 82% 29.67 in 1.8 mi NW 28.8 mph 36.8 mph 0.00 in Snow Light Snow
12:40 AM 27.0 °F 9.2 °F 21.0 °F 78% 29.71 in 1.2 mi NW 38.0 mph 50.6 mph 0.00 in Snow Light Snow
12:53 AM 26.1 °F 9.3 °F 19.9 °F 78% 29.76 in 1.2 mi NW 31.1 mph 39.1 mph 0.00 in Snow Light Snow
1:35 AM 21.9 °F 4.2 °F 10.0 °F 60% 29.79 in 3.0 mi NW 28.8 mph 46.0 mph 0.00 in Snow Light Snow
1:53 AM 21.0 °F 1.9 °F 3.9 °F 48% 29.84 in 9.0 mi WNW 33.4 mph 42.6 mph 0.00 in   Overcast
2:53 AM 19.0 °F -0.3 °F -0.9 °F 42% 29.89 in 10.0 mi WNW 31.1 mph 42.6 mph N/A   Overcast
3:53 AM 15.1 °F -1.6 °F 3.0 °F 59% 29.97 in 10.0 mi WNW 18.4 mph 35.7 mph N/A   Overcast
4:04 AM 14.0 °F -5.8 °F 5.0 °F 67% 29.95 in 9.0 mi WNW 26.5 mph 32.2 mph N/A   Overcast
4:28 AM 12.0 °F -8.8 °F -0.9 °F 56% 29.98 in 10.0 mi NW 27.6 mph 33.4 mph 0.00 in   Mostly Cloudy
4:53 AM 10.9 °F -9.9 °F -2.0 °F 56% 30.02 in 10.0 mi NW 26.5 mph 32.2 mph 0.00 in   Clear
5:53 AM 8.1 °F -12.2 °F -4.0 °F 58% 30.08 in 10.0 mi NW 21.9 mph 31.1 mph N/A   Clear
6:53 AM 7.0 °F -9.1 °F -2.9 °F 64% 30.13 in 10.0 mi WNW 12.7 mph - N/A   Partly Cloudy
7:53 AM 6.1 °F -12.8 °F -6.0 °F 58% 30.17 in 10.0 mi NW 17.3 mph 27.6 mph N/A   Clear
8:53 AM 5.0 °F -14.2 °F -5.1 °F 63% 30.22 in 10.0 mi NW 17.3 mph - N/A   Scattered Clouds
9:44 AM 6.1 °F -12.2 °F -5.1 °F 60% 30.21 in 10.0 mi WNW 16.1 mph - N/A   Mostly Cloudy
9:53 AM 6.1 °F -13.3 °F -5.1 °F 60% 30.25 in 10.0 mi WNW 18.4 mph - N/A   Mostly Cloudy
10:05 AM 6.1 °F -13.3 °F -6.0 °F 58% 30.22 in 10.0 mi NW 18.4 mph - N/A   Scattered Clouds
10:53 AM 7.0 °F -9.1 °F -4.0 °F 61% 30.27 in 10.0 mi West 12.7 mph - N/A   Scattered Clouds
11:53 AM 9.0 °F -5.1 °F -4.0 °F 56% 30.27 in 10.0 mi WNW 10.4 mph - N/A   Clear
12:53 PM 10.0 °F -6.5 °F -2.9 °F 56% 30.28 in 10.0 mi West 15.0 mph - N/A   Partly Cloudy
1:53 PM 12.0 °F -3.4 °F -2.0 °F 53% 30.27 in 10.0 mi West 13.8 mph - N/A   Partly Cloudy
2:53 PM 10.9 °F -5.9 °F -2.9 °F 54% 30.28 in 10.0 mi WNW 16.1 mph 24.2 mph N/A   Partly Cloudy
3:53 PM 12.0 °F -4.5 °F -2.9 °F 51% 30.28 in 10.0 mi WNW 16.1 mph - N/A   Partly Cloudy
4:53 PM 10.9 °F -5.9 °F -0.0 °F 61% 30.32 in 10.0 mi NW 16.1 mph - N/A   Mostly Cloudy
5:12 PM 10.0 °F -7.6 °F -0.9 °F 61% 30.28 in 10.0 mi WNW 17.3 mph - N/A   Overcast
5:53 PM 9.0 °F -8.5 °F -2.0 °F 61% 30.35 in 10.0 mi WNW 16.1 mph - N/A   Scattered Clouds
6:28 PM 8.1 °F -9.6 °F -2.9 °F 61% 30.31 in 10.0 mi NW 16.1 mph - N/A   Mostly Cloudy
6:53 PM 7.0 °F -9.8 °F -6.0 °F 55% 30.38 in 10.0 mi WNW 13.8 mph - N/A   Mostly Cloudy
7:04 PM 7.0 °F -8.3 °F -5.1 °F 58% 30.33 in 10.0 mi NW 11.5 mph - N/A   Scattered Clouds
7:53 PM 5.0 °F -13.6 °F -7.1 °F 58% 30.40 in 10.0 mi NW 16.1 mph - N/A   Clear
8:53 PM 3.9 °F -9.4 °F -8.0 °F 58% 30.44 in 10.0 mi NW 8.1 mph - N/A   Clear
9:53 PM 1.9 °F -15.5 °F -9.0 °F 60% 30.46 in 10.0 mi NW 12.7 mph - N/A   Clear
10:53 PM 1.0 °F -18.0 °F -11.9 °F 55% 30.47 in 10.0 mi NW 15.0 mph - N/A   Clear
11:53 PM -0.0 °F -14.2 °F -11.0 °F 60% 30.48 in 10.0 mi NNW 8.1 mph - N/A   Clear